Weather History for Wolf Point, MT

Change the Weather History Date:

Sunday, September 30, 2012

  Actual Average Record
Temperature  
Mean Temperature 57 °F -  
Max Temperature 74 °F 67 °F 84 °F (2011)
Min Temperature 40 °F 35 °F 19 °F (2003)
Degree Days  
Heating Degree Days 8    
Cooling Degree Days 0    
Growing Degree Days 10 (Base 50)    
Moisture  
Dew Point 42 °F    
Average Humidity 60    
Maximum Humidity 81    
Minimum Humidity 39    
Precipitation  
Precipitation 0.00 in 0.03 in 0.02 in (2013)
Month to date precipitation 0.02 1.01  
Year to date precipitation 9.14 10.68  
Sea Level Pressure  
Sea Level Pressure 30.11 in    
Wind  
Wind Speed 6 mph (NNW)    
Max Wind Speed 22 mph    
Max Gust Speed 31 mph    
Visibility 10 miles    
Events      
T = Trace of Precipitation, MM = Missing Value Source: NWS Daily Summary

Daily Weather History Graph

Daily Weather History Graph

Search for Another Location

Airport:

Trip Planner

Search our weather history database for the weather conditions in past years. The results will help you decide how hot, cold, wet, or windy it might be!

Date:

Astronomy

Sep. 30, 2012 Rise Set
Actual Time 7:00 AM MDT 6:42 PM MDT
Civil Twilight 6:29 AM MDT 7:13 PM MDT
Nautical Twilight 5:53 AM MDT 7:49 PM MDT
Astronomical Twilight 5:16 AM MDT 8:26 PM MDT
Moon 6:39 PM MDT (9/30) 7:41 AM MDT (9/30)
Length of Visible Light 12h 43m
Length of Day
11h 41m
Full, 100% of the Moon is Illuminated
Sep 30
Full
Oct 8
Last Quarter
Oct 15
New
Oct 21
First Quarter
Oct 29
Full

Hourly Weather History & Observations

Time (MDT) Temp. Dew Point Humidity Pressure Visibility Wind Dir Wind Speed Gust Speed Precip Events Conditions
12:53 AM 54.0 °F 39.0 °F 57% 29.96 in 10.0 mi SSW 4.6 mph - N/A   Clear
1:53 AM 51.1 °F 39.0 °F 63% 29.97 in 10.0 mi SW 4.6 mph - N/A   Clear
2:53 AM 50.0 °F 39.9 °F 68% 29.98 in 10.0 mi SW 5.8 mph - N/A   Mostly Cloudy
3:53 AM 52.0 °F 39.9 °F 63% 29.99 in 10.0 mi WSW 3.5 mph - N/A   Mostly Cloudy
4:53 AM 50.0 °F 39.0 °F 66% 30.01 in 10.0 mi Calm Calm - N/A   Partly Cloudy
5:53 AM 48.0 °F 37.9 °F 68% 30.03 in 10.0 mi West 3.5 mph - N/A   Clear
6:53 AM 46.9 °F 37.9 °F 71% 30.04 in 10.0 mi Calm Calm - N/A   Clear
7:53 AM 48.0 °F 39.9 °F 74% 30.07 in 10.0 mi Calm Calm - N/A   Partly Cloudy
8:53 AM 53.1 °F 41.0 °F 64% 30.07 in 10.0 mi Calm Calm - N/A   Clear
9:53 AM 61.0 °F 45.0 °F 56% 30.07 in 10.0 mi Calm Calm - N/A   Clear
10:53 AM 66.9 °F 46.0 °F 47% 30.07 in 10.0 mi ENE 8.1 mph - N/A   Clear
11:53 AM 71.1 °F 46.0 °F 41% 30.06 in 10.0 mi Variable 3.5 mph - N/A   Clear
12:53 PM 73.0 °F 46.9 °F 39% 30.06 in 10.0 mi North 11.5 mph - N/A   Partly Cloudy
1:53 PM 69.1 °F 45.0 °F 42% 30.07 in 10.0 mi NNE 19.6 mph - N/A   Scattered Clouds
2:53 PM 68.0 °F 46.0 °F 45% 30.10 in 10.0 mi NNE 21.9 mph 31.1 mph N/A   Partly Cloudy
3:53 PM 66.0 °F 42.1 °F 42% 30.12 in 10.0 mi NNE 21.9 mph 29.9 mph N/A   Partly Cloudy
4:53 PM 63.0 °F 44.1 °F 50% 30.15 in 10.0 mi North 18.4 mph 26.5 mph N/A   Mostly Cloudy
5:53 PM 59.0 °F 46.0 °F 62% 30.18 in 10.0 mi North 15.0 mph 21.9 mph N/A   Overcast
6:53 PM 57.9 °F 45.0 °F 62% 30.21 in 10.0 mi Calm Calm - N/A   Overcast
7:53 PM 55.9 °F 43.0 °F 62% 30.25 in 10.0 mi North 4.6 mph - N/A   Overcast
8:53 PM 52.0 °F 41.0 °F 66% 30.27 in 10.0 mi North 3.5 mph - N/A   Clear
9:53 PM 50.0 °F 39.9 °F 68% 30.28 in 10.0 mi Variable 3.5 mph - N/A   Partly Cloudy
10:53 PM 46.9 °F 39.0 °F 74% 30.28 in 10.0 mi Calm Calm - N/A   Clear
11:53 PM 42.8 °F 37.4 °F 81% 30.27 in 10.0 mi Calm Calm - N/A   Clear